Location: Helsinki
(60.1699°N, 24.9384°E)
Time: 08:19:32
(UTC+02:00)

AO-91 - Visible Passes

Search period start: 30 November 2022 00:00
Search period end: 10 December 2022 00:00
Orbit: 449 x 792 km, 97.7° (Epoch: 29 November)

Date Brightness Start Highest point End Pass type
(mag) Time Alt. Az. Time Alt. Az. Time Alt. Az.
01 Dec ? 07:19:10 10° ENE 07:20:28 11° NE 07:21:48 10° NNE visible
02 Dec ? 07:35:31 10° ENE 07:37:40 14° NE 07:39:55 10° N visible
03 Dec ? 07:52:11 10° E 07:54:53 18° NE 07:57:46 10° N visible
06 Dec ? 07:10:12 10° ENE 07:11:40 12° NE 07:13:10 10° NNE visible
07 Dec ? 07:26:33 10° ENE 07:28:49 14° NE 07:31:12 10° N visible
08 Dec ? 07:43:10 10° E 07:45:59 18° NE 07:49:00 10° N visible
09 Dec ? 07:59:55 10° ESE 08:03:10 22° NE 08:06:41 10° N visible
